Location: Franzen
(48.6167°N, 15.3833°E)
Time: 09:58:30
(UTC+00:00)

Cosmos 1943 - Pass Details

Date: 22 April 2021
Orbit: 834 x 849 km, 71.0° (Epoch: 16 May)

Event Time Altitude Azimuth Distance (km) Brightness Sun altitude
Rises 21:42:09 0° 329° (NNW) 3,395 7.6 -26.7°
Reaches altitude 10° 21:44:38 10° 325° (NW) 2,458 6.5 -26.8°
Maximum altitude 21:50:08 56° 249° (WSW) 993 3.4 -27.1°
Enters shadow 21:50:15 56° 243° (WSW) 994 3.4 -27.1°
